| time (UTC) | temp F | wind direction | speed MPH | gust MPH | rain 1hr in | rain 24hr in | rain mn in | humidity % | barometer mb |
| 20260902051516 | 69 | 68 | 2.0 | 6.0 | 0.00 | 0.37 | 0.00 | 94 | 1018.6 |
| 20260902051016 | 69 | 23 | 1.0 | 4.0 | 0.00 | 0.37 | 0.00 | 94 | 1018.6 |
| 20260902050536 | 69 | 68 | 1.0 | 4.0 | 0.00 | 0.37 | 0.00 | 94 | 1018.6 |
| 20260902050016 | 69 | 68 | 2.0 | 5.0 | 0.00 | 0.38 | 0.00 | 94 | 1018.6 |
| 20260902045516 | 69 | 135 | 1.0 | 4.0 | 0.00 | 0.38 | 0.00 | 94 | 1018.4 |
| 20260902045016 | 69 | 113 | 2.0 | 6.0 | 0.00 | 0.38 | 0.00 | 94 | 1018.4 |
| 20260902044516 | 69 | 113 | 2.0 | 6.0 | 0.00 | 0.38 | 0.00 | 94 | 1018.4 |
| 20260902044018 | 69 | 68 | 3.0 | 9.0 | 0.00 | 0.38 | 0.00 | 94 | 1018.3 |
| 20260902043538 | 69 | 68 | 3.0 | 8.0 | 0.00 | 0.38 | 0.00 | 94 | 1018.2 |
| 20260902043017 | 69 | 68 | 1.0 | 6.0 | 0.00 | 0.38 | 0.00 | 94 | 1018.1 |
| 20260902042516 | 69 | 68 | 1.0 | 4.0 | 0.00 | 0.38 | 0.00 | 94 | 1018.2 |
| 20260902042016 | 69 | 90 | 1.0 | 4.0 | 0.00 | 0.38 | 0.00 | 94 | 1018.1 |
| 20260902041516 | 69 | 23 | 2.0 | 5.0 | 0.00 | 0.38 | 0.00 | 94 | 1018.1 |
| 20260902041016 | 69 | 45 | 1.0 | 4.0 | 0.00 | 0.38 | 0.00 | 94 | 1018.2 |
| 20260902040516 | 69 | 45 | 1.0 | 3.0 | 0.00 | 0.38 | 0.00 | 94 | 1018.1 |
| 20260902040016 | 69 | 68 | 2.0 | 7.0 | 0.00 | 0.38 | 0.00 | 94 | 1018.2 |
| 20260902035516 | 70 | 113 | 2.0 | 8.0 | 0.00 | 0.38 | 0.38 | 94 | 1018.0 |
| 20260902035018 | 70 | 23 | 1.0 | 3.0 | 0.00 | 0.38 | 0.38 | 94 | 1017.8 |
| 20260902034517 | 70 | 68 | 1.0 | 3.0 | 0.00 | 0.38 | 0.38 | 94 | 1017.5 |
| 20260902034017 | 70 | 68 | 3.0 | 8.0 | 0.00 | 0.38 | 0.38 | 94 | 1017.4 |
| 20260902033517 | 70 | 68 | 4.0 | 9.0 | 0.00 | 0.38 | 0.38 | 94 | 1017.1 |
| 20260902033056 | 70 | 113 | 3.0 | 8.0 | 0.00 | 0.38 | 0.38 | 94 | 1017.1 |
| 20260902032516 | 70 | 90 | 3.0 | 9.0 | 0.00 | 0.38 | 0.38 | 94 | 1017.1 |
| 20260902032016 | 70 | 90 | 3.0 | 9.0 | 0.00 | 0.38 | 0.38 | 94 | 1017.1 |
| 20260902031516 | 70 | 68 | 3.0 | 8.0 | 0.00 | 0.38 | 0.38 | 94 | 1017.1 |
| 20260902031017 | 70 | 113 | 2.0 | 7.0 | 0.00 | 0.38 | 0.38 | 94 | 1017.2 |
| 20260902030536 | 70 | 90 | 2.0 | 8.0 | 0.00 | 0.38 | 0.38 | 94 | 1017.2 |
| 20260902030017 | 70 | 68 | 3.0 | 9.0 | 0.00 | 0.38 | 0.38 | 94 | 1017.2 |
| 20260902025516 | 70 | 68 | 3.0 | 10.0 | 0.00 | 0.38 | 0.38 | 94 | 1017.2 |
| 20260902025016 | 70 | 68 | 3.0 | 10.0 | 0.00 | 0.38 | 0.38 | 94 | 1017.2 |
| 20260902024518 | 70 | 68 | 4.0 | 13.0 | 0.00 | 0.38 | 0.38 | 94 | 1017.2 |
| 20260902024018 | 70 | 68 | 4.0 | 11.0 | 0.00 | 0.38 | 0.38 | 93 | 1017.2 |
| 20260902023518 | 70 | 68 | 3.0 | 10.0 | 0.00 | 0.38 | 0.38 | 93 | 1017.0 |
| 20260902023016 | 70 | 68 | 4.0 | 10.0 | 0.00 | 0.38 | 0.38 | 93 | 1017.0 |
| 20260902022518 | 70 | 68 | 3.0 | 9.0 | 0.00 | 0.38 | 0.38 | 94 | 1016.8 |
| 20260902022018 | 70 | 90 | 3.0 | 13.0 | 0.00 | 0.38 | 0.38 | 94 | 1016.8 |
| 20260902021538 | 70 | 68 | 5.0 | 13.0 | 0.00 | 0.38 | 0.38 | 93 | 1016.5 |
| 20260902021016 | 70 | 23 | 3.0 | 10.0 | 0.00 | 0.38 | 0.38 | 93 | 1016.4 |
| 20260902020516 | 70 | 68 | 5.0 | 13.0 | 0.00 | 0.38 | 0.38 | 93 | 1016.3 |
| 20260902020036 | 71 | 68 | 4.0 | 10.0 | 0.00 | 0.38 | 0.38 | 93 | 1016.4 |
| 20260902015536 | 71 | 68 | 5.0 | 11.0 | 0.00 | 0.38 | 0.38 | 93 | 1016.3 |
| 20260902015016 | 71 | 45 | 3.0 | 11.0 | 0.00 | 0.38 | 0.38 | 93 | 1016.0 |
| 20260902014518 | 71 | 68 | 3.0 | 9.0 | 0.00 | 0.38 | 0.38 | 93 | 1015.9 |
| 20260902014017 | 72 | 68 | 4.0 | 8.0 | 0.00 | 0.38 | 0.38 | 93 | 1015.6 |
| 20260902013516 | 72 | 45 | 2.0 | 9.0 | 0.00 | 0.38 | 0.38 | 93 | 1015.9 |
| 20260902013016 | 72 | 68 | 3.0 | 13.0 | 0.00 | 0.38 | 0.38 | 93 | 1015.7 |
| 20260902012517 | 73 | 45 | 4.0 | 13.0 | 0.00 | 0.38 | 0.38 | 93 | 1015.8 |
| 20260902012016 | 73 | 45 | 2.0 | 6.0 | 0.00 | 0.38 | 0.38 | 93 | 1015.5 |
| 20260902011516 | 73 | 23 | 4.0 | 12.0 | 0.00 | 0.38 | 0.38 | 93 | 1015.4 |
| 20260902011016 | 73 | 23 | 2.0 | 7.0 | 0.00 | 0.38 | 0.38 | 93 | 1015.1 |
| 20260902010516 | 73 | 68 | 3.0 | 9.0 | 0.00 | 0.38 | 0.38 | 93 | 1015.2 |
| 20260902010017 | 74 | 45 | 4.0 | 10.0 | 0.00 | 0.38 | 0.38 | 93 | 1015.2 |
| 20260902005516 | 74 | 68 | 2.0 | 8.0 | 0.00 | 0.38 | 0.38 | 93 | 1015.3 |
| 20260902005016 | 74 | 45 | 2.0 | 9.0 | 0.01 | 0.38 | 0.38 | 93 | 1015.1 |
| 20260902004516 | 75 | 68 | 4.0 | 11.0 | 0.01 | 0.38 | 0.38 | 93 | 1015.0 |
| 20260902004036 | 75 | 68 | 3.0 | 10.0 | 0.02 | 0.38 | 0.38 | 93 | 1014.9 |
| 20260902003517 | 75 | 68 | 2.0 | 9.0 | 0.02 | 0.38 | 0.38 | 93 | 1015.0 |
| 20260902003036 | 76 | 68 | 2.0 | 6.0 | 0.02 | 0.38 | 0.38 | 93 | 1014.9 |
| 20260902002556 | 76 | 90 | 2.0 | 8.0 | 0.03 | 0.38 | 0.38 | 93 | 1014.7 |
| 20260902002018 | 76 | 68 | 2.0 | 6.0 | 0.03 | 0.38 | 0.38 | 93 | 1014.8 |
| 20260902001516 | 76 | 135 | 2.0 | 4.0 | 0.03 | 0.38 | 0.38 | 93 | 1014.9 |
| 20260902001016 | 76 | 135 | 1.0 | 4.0 | 0.03 | 0.38 | 0.38 | 92 | 1014.9 |
| 20260902000516 | 76 | 0.0 | 3.0 | 0.03 | 0.38 | 0.38 | 92 | 1015.0 | |
| 20260902000036 | 76 | 135 | 1.0 | 3.0 | 0.04 | 0.38 | 0.38 | 92 | 1014.9 |
| 20260901235536 | 76 | 113 | 1.0 | 4.0 | 0.04 | 0.38 | 0.38 | 92 | 1014.7 |
| 20260901235016 | 76 | 113 | 2.0 | 4.0 | 0.03 | 0.37 | 0.37 | 92 | 1014.8 |
| 20260901234516 | 76 | 158 | 1.0 | 3.0 | 0.03 | 0.37 | 0.37 | 92 | 1015.1 |
| 20260901234016 | 76 | 113 | 1.0 | 4.0 | 0.02 | 0.36 | 0.36 | 92 | 1014.9 |
| 20260901233516 | 76 | 135 | 1.0 | 6.0 | 0.02 | 0.36 | 0.36 | 92 | 1015.1 |
| 20260901233016 | 76 | 113 | 2.0 | 8.0 | 0.05 | 0.36 | 0.36 | 92 | 1014.6 |
| 20260901232536 | 76 | 113 | 4.0 | 8.0 | 0.12 | 0.35 | 0.35 | 91 | 1014.2 |
| 20260901232016 | 76 | 113 | 3.0 | 7.0 | 0.26 | 0.35 | 0.35 | 91 | 1014.7 |
| 20260901231516 | 76 | 135 | 3.0 | 7.0 | 0.29 | 0.35 | 0.35 | 91 | 1014.6 |
| 20260901231016 | 76 | 113 | 3.0 | 9.0 | 0.30 | 0.35 | 0.35 | 91 | 1014.5 |
| 20260901230517 | 76 | 113 | 4.0 | 8.0 | 0.30 | 0.35 | 0.35 | 91 | 1014.4 |
| 20260901230016 | 77 | 113 | 4.0 | 8.0 | 0.29 | 0.34 | 0.34 | 90 | 1014.3 |
| 20260901225516 | 77 | 113 | 3.0 | 8.0 | 0.29 | 0.34 | 0.34 | 90 | 1014.3 |
| 20260901225016 | 77 | 113 | 2.0 | 4.0 | 0.29 | 0.34 | 0.34 | 90 | 1014.3 |
| 20260901224516 | 77 | 135 | 1.0 | 5.0 | 0.29 | 0.34 | 0.34 | 89 | 1014.5 |
| 20260901224016 | 77 | 270 | 2.0 | 4.0 | 0.29 | 0.34 | 0.34 | 88 | 1014.5 |
| 20260901223517 | 78 | 225 | 2.0 | 5.0 | 0.29 | 0.34 | 0.34 | 88 | 1014.2 |
| 20260901223037 | 78 | 45 | 1.0 | 4.0 | 0.26 | 0.31 | 0.31 | 87 | 1014.2 |
| 20260901222538 | 79 | 90 | 1.0 | 4.0 | 0.18 | 0.23 | 0.23 | 86 | 1014.2 |
| 20260901222016 | 79 | 135 | 2.0 | 6.0 | 0.04 | 0.09 | 0.09 | 86 | 1014.4 |
| 20260901221516 | 79 | 113 | 4.0 | 11.0 | 0.01 | 0.06 | 0.06 | 85 | 1014.0 |
| 20260901221016 | 79 | 113 | 6.0 | 11.0 | 0.00 | 0.05 | 0.05 | 84 | 1013.7 |
| 20260901220516 | 80 | 113 | 6.0 | 10.0 | 0.00 | 0.05 | 0.05 | 83 | 1013.7 |
| 20260901220016 | 80 | 135 | 4.0 | 9.0 | 0.00 | 0.05 | 0.05 | 83 | 1013.7 |
| 20260901215516 | 80 | 135 | 5.0 | 10.0 | 0.00 | 0.05 | 0.05 | 82 | 1013.9 |
| 20260901215016 | 80 | 113 | 4.0 | 9.0 | 0.00 | 0.05 | 0.05 | 82 | 1013.9 |
| 20260901214516 | 81 | 113 | 5.0 | 10.0 | 0.00 | 0.05 | 0.05 | 81 | 1013.9 |
| 20260901214036 | 81 | 135 | 5.0 | 10.0 | 0.00 | 0.05 | 0.05 | 80 | 1013.9 |
| 20260901213517 | 82 | 135 | 4.0 | 9.0 | 0.00 | 0.05 | 0.05 | 79 | 1013.9 |
| 20260901213016 | 82 | 135 | 4.0 | 9.0 | 0.00 | 0.05 | 0.05 | 78 | 1013.8 |
| 20260901212516 | 83 | 113 | 4.0 | 9.0 | 0.00 | 0.05 | 0.05 | 78 | 1013.8 |
| 20260901212037 | 83 | 113 | 4.0 | 8.0 | 0.00 | 0.05 | 0.05 | 78 | 1013.9 |
| 20260901211516 | 83 | 113 | 4.0 | 8.0 | 0.00 | 0.05 | 0.05 | 78 | 1014.0 |
| 20260901211016 | 83 | 113 | 3.0 | 7.0 | 0.00 | 0.05 | 0.05 | 78 | 1013.9 |
| 20260901210517 | 83 | 135 | 4.0 | 8.0 | 0.00 | 0.05 | 0.05 | 77 | 1013.8 |
| 20260901210016 | 84 | 158 | 2.0 | 5.0 | 0.00 | 0.05 | 0.05 | 78 | 1013.8 |
| 20260901205516 | 84 | 135 | 2.0 | 6.0 | 0.00 | 0.05 | 0.05 | 78 | 1013.8 |
| 20260901205016 | 84 | 135 | 4.0 | 7.0 | 0.00 | 0.05 | 0.05 | 77 | 1013.8 |
| 20260901204516 | 84 | 135 | 3.0 | 7.0 | 0.00 | 0.05 | 0.05 | 77 | 1013.8 |
| 20260901204036 | 84 | 135 | 3.0 | 6.0 | 0.00 | 0.05 | 0.05 | 76 | 1013.8 |
| 20260901203537 | 85 | 135 | 2.0 | 7.0 | 0.00 | 0.05 | 0.05 | 76 | 1013.9 |
| 20260901203017 | 85 | 113 | 2.0 | 8.0 | 0.00 | 0.05 | 0.05 | 75 | 1014.0 |
| 20260901202516 | 85 | 135 | 2.0 | 6.0 | 0.00 | 0.05 | 0.05 | 75 | 1013.9 |
| 20260901202017 | 86 | 135 | 1.0 | 6.0 | 0.00 | 0.05 | 0.05 | 75 | 1013.9 |
| 20260901201516 | 86 | 0.0 | 3.0 | 0.00 | 0.05 | 0.05 | 75 | 1013.8 | |
| 20260901201016 | 85 | 0.0 | 2.0 | 0.00 | 0.05 | 0.05 | 75 | 1013.9 | |
| 20260901200536 | 85 | 0.0 | 2.0 | 0.00 | 0.05 | 0.05 | 75 | 1013.9 | |
| 20260901200016 | 86 | 158 | 1.0 | 5.0 | 0.00 | 0.05 | 0.05 | 75 | 1013.8 |
| 20260901195516 | 86 | 158 | 1.0 | 4.0 | 0.00 | 0.05 | 0.05 | 75 | 1013.8 |
| 20260901195016 | 86 | 158 | 1.0 | 5.0 | 0.00 | 0.05 | 0.05 | 75 | 1013.7 |
| 20260901194516 | 86 | 135 | 1.0 | 3.0 | 0.00 | 0.05 | 0.05 | 75 | 1013.8 |
| 20260901194016 | 86 | 0.0 | 3.0 | 0.00 | 0.05 | 0.05 | 76 | 1013.9 | |
| 20260901193516 | 85 | 135 | 1.0 | 4.0 | 0.00 | 0.05 | 0.05 | 76 | 1014.0 |
| 20260901193016 | 85 | 113 | 1.0 | 4.0 | 0.00 | 0.05 | 0.05 | 77 | 1014.0 |
| 20260901192516 | 85 | 135 | 2.0 | 5.0 | 0.00 | 0.05 | 0.05 | 78 | 1014.0 |
| 20260901192016 | 85 | 135 | 2.0 | 6.0 | 0.00 | 0.05 | 0.05 | 79 | 1014.0 |
| 20260901191516 | 84 | 293 | 1.0 | 6.0 | 0.00 | 0.05 | 0.05 | 80 | 1014.0 |
| 20260901191036 | 84 | 0.0 | 2.0 | 0.00 | 0.05 | 0.05 | 81 | 1014.1 | |
| 20260901190516 | 83 | 225 | 1.0 | 3.0 | 0.00 | 0.05 | 0.05 | 81 | 1014.1 |
| 20260901190016 | 83 | 0.0 | 1.0 | 0.00 | 0.05 | 0.05 | 82 | 1014.1 | |
| 20260901185516 | 82 | 248 | 2.0 | 5.0 | 0.00 | 0.05 | 0.05 | 81 | 1014.2 |
| 20260901185017 | 82 | 225 | 1.0 | 4.0 | 0.00 | 0.05 | 0.05 | 82 | 1014.2 |
| 20260901184516 | 82 | 225 | 1.0 | 4.0 | 0.00 | 0.05 | 0.05 | 82 | 1014.2 |
| 20260901184036 | 82 | 0.0 | 2.0 | 0.00 | 0.05 | 0.05 | 82 | 1014.3 | |
| 20260901183517 | 82 | 0.0 | 2.0 | 0.00 | 0.05 | 0.05 | 82 | 1014.3 | |
| 20260901183016 | 82 | 248 | 1.0 | 4.0 | 0.00 | 0.05 | 0.05 | 82 | 1014.3 |
| 20260901182516 | 82 | 135 | 1.0 | 5.0 | 0.00 | 0.05 | 0.05 | 83 | 1014.2 |
| 20260901182017 | 82 | 225 | 1.0 | 7.0 | 0.00 | 0.05 | 0.05 | 84 | 1014.2 |
| 20260901181536 | 81 | 248 | 2.0 | 7.0 | 0.00 | 0.05 | 0.05 | 85 | 1014.2 |
| 20260901181016 | 81 | 225 | 4.0 | 10.0 | 0.00 | 0.05 | 0.05 | 86 | 1014.1 |
| 20260901180516 | 81 | 225 | 5.0 | 11.0 | 0.00 | 0.05 | 0.05 | 86 | 1014.1 |
| 20260901180016 | 81 | 203 | 2.0 | 7.0 | 0.00 | 0.05 | 0.05 | 87 | 1014.1 |
| 20260901175537 | 80 | 225 | 1.0 | 5.0 | 0.00 | 0.05 | 0.05 | 88 | 1014.1 |
| 20260901175017 | 80 | 248 | 2.0 | 9.0 | 0.00 | 0.05 | 0.05 | 90 | 1014.1 |
| 20260901174557 | 80 | 248 | 2.0 | 7.0 | 0.00 | 0.05 | 0.05 | 90 | 1013.9 |
| 20260901174017 | 79 | 225 | 3.0 | 9.0 | 0.00 | 0.05 | 0.05 | 91 | 1014.1 |
| 20260901173536 | 78 | 0.0 | 2.0 | 0.00 | 0.05 | 0.05 | 92 | 1014.5 | |
| 20260901173016 | 78 | 0.0 | 3.0 | 0.00 | 0.05 | 0.05 | 91 | 1014.7 | |
| 20260901172516 | 78 | 0.0 | 2.0 | 0.00 | 0.05 | 0.05 | 92 | 1014.9 | |
| 20260901172017 | 77 | 0.0 | 2.0 | 0.00 | 0.05 | 0.05 | 91 | 1015.0 | |
| 20260901171517 | 77 | 0.0 | 2.0 | 0.00 | 0.05 | 0.05 | 91 | 1014.9 | |
| 20260901171016 | 77 | 225 | 1.0 | 6.0 | 0.00 | 0.05 | 0.05 | 91 | 1015.0 |
| 20260901170537 | 77 | 0.0 | 3.0 | 0.01 | 0.05 | 0.05 | 91 | 1015.0 | |
| 20260901170036 | 77 | 0.0 | 5.0 | 0.01 | 0.05 | 0.05 | 91 | 1014.7 | |
| 20260901165536 | 77 | 0.0 | 0.0 | 0.02 | 0.05 | 0.05 | 91 | 1014.9 | |
| 20260901165016 | 77 | 0.0 | 2.0 | 0.02 | 0.05 | 0.05 | 91 | 1014.9 | |
| 20260901164516 | 77 | 225 | 1.0 | 3.0 | 0.02 | 0.05 | 0.05 | 91 | 1015.0 |
| 20260901164016 | 77 | 225 | 1.0 | 4.0 | 0.02 | 0.05 | 0.05 | 90 | 1015.2 |
| 20260901163516 | 77 | 225 | 3.0 | 5.0 | 0.02 | 0.05 | 0.05 | 90 | 1015.2 |
| 20260901163016 | 77 | 225 | 2.0 | 6.0 | 0.03 | 0.05 | 0.05 | 90 | 1015.4 |
| 20260901162516 | 78 | 0.0 | 2.0 | 0.03 | 0.05 | 0.05 | 90 | 1015.5 | |
| 20260901162016 | 78 | 0.0 | 1.0 | 0.03 | 0.05 | 0.05 | 90 | 1015.4 | |
| 20260901161536 | 77 | 0.0 | 1.0 | 0.03 | 0.05 | 0.05 | 90 | 1015.6 | |
| 20260901161016 | 78 | 0.0 | 0.0 | 0.03 | 0.05 | 0.05 | 90 | 1015.8 | |
| 20260901160535 | 77 | 0.0 | 1.0 | 0.02 | 0.04 | 0.04 | 90 | 1015.9 | |
| 20260901160055 | 77 | 0.0 | 1.0 | 0.02 | 0.04 | 0.04 | 90 | 1015.9 | |
| 20260901155517 | 77 | 0.0 | 1.0 | 0.01 | 0.03 | 0.03 | 90 | 1016.1 | |
| 20260901155016 | 78 | 0.0 | 2.0 | 0.01 | 0.03 | 0.03 | 90 | 1016.1 | |
| 20260901154517 | 78 | 0.0 | 2.0 | 0.01 | 0.03 | 0.03 | 90 | 1016.3 | |
| 20260901154016 | 78 | 293 | 1.0 | 3.0 | 0.01 | 0.03 | 0.03 | 90 | 1016.4 |
| 20260901153516 | 78 | 293 | 1.0 | 2.0 | 0.01 | 0.03 | 0.03 | 90 | 1016.3 |
| 20260901153016 | 78 | 293 | 1.0 | 2.0 | 0.00 | 0.02 | 0.02 | 90 | 1016.4 |
| 20260901152517 | 77 | 0.0 | 2.0 | 0.00 | 0.02 | 0.02 | 90 | 1016.1 | |
| 20260901152016 | 77 | 180 | 1.0 | 2.0 | 0.00 | 0.02 | 0.02 | 90 | 1016.2 |
| 20260901151535 | 77 | 0.0 | 2.0 | 0.00 | 0.02 | 0.02 | 90 | 1016.1 | |
| 20260901151159 | 77 | 0.0 | 2.0 | 0.00 | 0.02 | 0.02 | 90 | 1016.2 | |
| 20260901150517 | 77 | 0.0 | 2.0 | 0.00 | 0.02 | 0.02 | 90 | 1016.4 | |
| 20260901150036 | 77 | 0.0 | 1.0 | 0.00 | 0.02 | 0.02 | 91 | 1016.3 | |
| 20260901145517 | 77 | 0.0 | 2.0 | 0.00 | 0.02 | 0.02 | 91 | 1016.2 | |
| 20260901145015 | 77 | 180 | 1.0 | 3.0 | 0.00 | 0.02 | 0.02 | 91 | 1016.1 |
| 20260901144515 | 77 | 0.0 | 2.0 | 0.00 | 0.02 | 0.02 | 91 | 1016.2 | |
| 20260901144016 | 77 | 0.0 | 2.0 | 0.00 | 0.02 | 0.02 | 91 | 1016.2 | |
| 20260901143515 | 77 | 0.0 | 3.0 | 0.00 | 0.02 | 0.02 | 91 | 1016.2 | |
| 20260901143015 | 77 | 0.0 | 1.0 | 0.00 | 0.02 | 0.02 | 92 | 1016.1 | |
| 20260901142516 | 77 | 270 | 1.0 | 2.0 | 0.00 | 0.02 | 0.02 | 92 | 1016.1 |
| 20260901142017 | 76 | 0.0 | 0.0 | 0.00 | 0.02 | 0.02 | 92 | 1015.9 | |
| 20260901141515 | 76 | 0.0 | 1.0 | 0.00 | 0.02 | 0.02 | 92 | 1015.9 | |
| 20260901141015 | 76 | 135 | 1.0 | 4.0 | 0.00 | 0.02 | 0.02 | 92 | 1015.7 |
| 20260901140536 | 76 | 135 | 1.0 | 3.0 | 0.00 | 0.02 | 0.02 | 92 | 1015.7 |
| 20260901140016 | 76 | 225 | 1.0 | 3.0 | 0.00 | 0.02 | 0.02 | 92 | 1015.7 |
| 20260901135535 | 76 | 0.0 | 2.0 | 0.01 | 0.02 | 0.02 | 92 | 1015.9 | |
| 20260901135015 | 76 | 248 | 1.0 | 3.0 | 0.01 | 0.02 | 0.02 | 92 | 1016.0 |
| 20260901134515 | 76 | 225 | 1.0 | 4.0 | 0.01 | 0.02 | 0.02 | 93 | 1015.9 |
| 20260901134015 | 76 | 203 | 1.0 | 4.0 | 0.01 | 0.02 | 0.02 | 93 | 1015.9 |
| 20260901133516 | 75 | 270 | 1.0 | 4.0 | 0.01 | 0.02 | 0.02 | 93 | 1015.8 |
| 20260901133015 | 76 | 225 | 1.0 | 4.0 | 0.01 | 0.02 | 0.02 | 93 | 1015.8 |
| 20260901132516 | 75 | 225 | 1.0 | 4.0 | 0.01 | 0.02 | 0.02 | 93 | 1015.9 |
| 20260901132017 | 75 | 225 | 3.0 | 6.0 | 0.01 | 0.02 | 0.02 | 93 | 1015.9 |
| 20260901131515 | 75 | 248 | 3.0 | 7.0 | 0.01 | 0.02 | 0.02 | 93 | 1016.0 |
| 20260901131037 | 75 | 203 | 1.0 | 4.0 | 0.01 | 0.02 | 0.02 | 93 | 1016.0 |
| 20260901130515 | 75 | 225 | 3.0 | 9.0 | 0.01 | 0.02 | 0.02 | 93 | 1015.9 |
| 20260901130035 | 75 | 203 | 3.0 | 5.0 | 0.01 | 0.02 | 0.02 | 93 | 1015.9 |
| 20260901125517 | 75 | 293 | 1.0 | 4.0 | 0.00 | 0.01 | 0.01 | 93 | 1016.0 |
| 20260901125015 | 75 | 0.0 | 2.0 | 0.00 | 0.01 | 0.01 | 93 | 1015.9 | |
| 20260901124537 | 75 | 248 | 1.0 | 4.0 | 0.00 | 0.01 | 0.01 | 93 | 1016.0 |
| 20260901124015 | 75 | 248 | 1.0 | 5.0 | 0.00 | 0.01 | 0.01 | 93 | 1016.0 |
| 20260901123517 | 75 | 0.0 | 2.0 | 0.00 | 0.01 | 0.01 | 93 | 1015.9 | |
| 20260901123017 | 75 | 0.0 | 1.0 | 0.00 | 0.01 | 0.01 | 93 | 1016.0 | |
| 20260901122517 | 75 | 0.0 | 3.0 | 0.00 | 0.01 | 0.01 | 93 | 1016.1 | |
| 20260901122017 | 74 | 293 | 1.0 | 3.0 | 0.00 | 0.01 | 0.01 | 93 | 1016.0 |
| 20260901121517 | 74 | 0.0 | 1.0 | 0.00 | 0.01 | 0.01 | 93 | 1016.0 | |
| 20260901121017 | 74 | 0.0 | 2.0 | 0.00 | 0.01 | 0.01 | 92 | 1016.2 | |
| 20260901120517 | 74 | 0.0 | 0.0 | 0.00 | 0.01 | 0.01 | 92 | 1016.3 | |
| 20260901120017 | 74 | 0.0 | 0.0 | 0.00 | 0.01 | 0.01 | 92 | 1016.3 | |
| 20260901115517 | 74 | 0.0 | 0.0 | 0.00 | 0.01 | 0.01 | 92 | 1016.1 | |
| 20260901115017 | 74 | 0.0 | 2.0 | 0.00 | 0.01 | 0.01 | 92 | 1016.0 | |
| 20260901114540 | 74 | 0.0 | 2.0 | 0.00 | 0.02 | 0.01 | 92 | 1016.1 | |
| 20260901114018 | 74 | 0.0 | 0.0 | 0.00 | 0.02 | 0.01 | 92 | 1016.1 | |
| 20260901113517 | 74 | 0.0 | 1.0 | 0.00 | 0.02 | 0.01 | 92 | 1016.2 | |
| 20260901113017 | 74 | 0.0 | 3.0 | 0.00 | 0.02 | 0.01 | 92 | 1016.3 | |
| 20260901112517 | 74 | 0.0 | 3.0 | 0.00 | 0.02 | 0.01 | 92 | 1016.3 | |
| 20260901112017 | 74 | 225 | 2.0 | 5.0 | 0.00 | 0.02 | 0.01 | 92 | 1016.4 |
| 20260901111517 | 74 | 248 | 2.0 | 4.0 | 0.00 | 0.02 | 0.01 | 92 | 1016.5 |
| 20260901111018 | 74 | 248 | 3.0 | 6.0 | 0.00 | 0.02 | 0.01 | 92 | 1016.4 |
| 20260901110517 | 74 | 248 | 2.0 | 4.0 | 0.00 | 0.02 | 0.01 | 92 | 1016.4 |
| 20260901110017 | 73 | 225 | 1.0 | 4.0 | 0.00 | 0.02 | 0.01 | 92 | 1016.4 |
| 20260901105517 | 73 | 225 | 1.0 | 4.0 | 0.00 | 0.02 | 0.01 | 92 | 1016.3 |
| 20260901105017 | 73 | 0.0 | 2.0 | 0.00 | 0.02 | 0.01 | 92 | 1016.3 | |
| 20260901104517 | 73 | 0.0 | 2.0 | 0.00 | 0.02 | 0.01 | 92 | 1016.2 | |
| 20260901104037 | 73 | 0.0 | 2.0 | 0.00 | 0.02 | 0.01 | 92 | 1016.1 | |
| 20260901103518 | 73 | 0.0 | 2.0 | 0.00 | 0.02 | 0.01 | 92 | 1016.2 | |
| 20260901103120 | 73 | 225 | 1.0 | 3.0 | 0.00 | 0.02 | 0.01 | 92 | 1016.1 |
| 20260901102536 | 73 | 225 | 1.0 | 3.0 | 0.00 | 0.02 | 0.01 | 92 | 1016.1 |
| 20260901102018 | 73 | 225 | 2.0 | 4.0 | 0.00 | 0.02 | 0.01 | 92 | 1016.1 |
| 20260901101517 | 73 | 225 | 1.0 | 3.0 | 0.00 | 0.02 | 0.01 | 92 | 1016.1 |
| 20260901101017 | 73 | 248 | 1.0 | 3.0 | 0.00 | 0.02 | 0.01 | 92 | 1016.1 |
| 20260901100518 | 73 | 248 | 2.0 | 4.0 | 0.00 | 0.02 | 0.01 | 92 | 1016.1 |
| 20260901100018 | 73 | 0.0 | 1.0 | 0.00 | 0.02 | 0.01 | 92 | 1016.1 | |
| 20260901095518 | 73 | 248 | 1.0 | 4.0 | 0.00 | 0.02 | 0.01 | 92 | 1015.9 |
| 20260901095018 | 73 | 270 | 2.0 | 7.0 | 0.00 | 0.02 | 0.01 | 92 | 1016.0 |
| 20260901094517 | 73 | 270 | 2.0 | 6.0 | 0.00 | 0.02 | 0.01 | 92 | 1016.0 |
| 20260901094018 | 73 | 225 | 2.0 | 5.0 | 0.00 | 0.02 | 0.01 | 92 | 1015.9 |
| 20260901093517 | 73 | 248 | 2.0 | 4.0 | 0.00 | 0.02 | 0.01 | 92 | 1015.9 |
| 20260901093037 | 73 | 225 | 2.0 | 4.0 | 0.00 | 0.02 | 0.01 | 92 | 1016.0 |
| 20260901092518 | 73 | 248 | 2.0 | 4.0 | 0.00 | 0.02 | 0.01 | 92 | 1016.1 |
| 20260901092017 | 73 | 203 | 1.0 | 4.0 | 0.00 | 0.02 | 0.01 | 92 | 1016.1 |
| 20260901091517 | 73 | 248 | 2.0 | 4.0 | 0.00 | 0.02 | 0.01 | 92 | 1016.2 |
| 20260901091018 | 73 | 225 | 2.0 | 6.0 | 0.00 | 0.02 | 0.01 | 92 | 1016.2 |
| 20260901090518 | 73 | 248 | 2.0 | 4.0 | 0.00 | 0.02 | 0.01 | 92 | 1016.3 |
| 20260901090017 | 73 | 225 | 2.0 | 4.0 | 0.00 | 0.02 | 0.01 | 92 | 1016.3 |
| 20260901085517 | 73 | 248 | 2.0 | 4.0 | 0.00 | 0.02 | 0.01 | 91 | 1016.4 |
| 20260901085037 | 73 | 225 | 2.0 | 4.0 | 0.00 | 0.02 | 0.01 | 91 | 1016.4 |
| 20260901084537 | 73 | 225 | 4.0 | 6.0 | 0.00 | 0.02 | 0.01 | 91 | 1016.4 |
| 20260901084018 | 73 | 225 | 2.0 | 5.0 | 0.00 | 0.02 | 0.01 | 91 | 1016.5 |
| 20260901083537 | 73 | 225 | 2.0 | 5.0 | 0.00 | 0.02 | 0.01 | 91 | 1016.5 |
| 20260901083017 | 73 | 248 | 2.0 | 4.0 | 0.00 | 0.02 | 0.01 | 91 | 1016.5 |
| 20260901082518 | 73 | 248 | 1.0 | 4.0 | 0.00 | 0.02 | 0.01 | 91 | 1016.5 |
| 20260901082017 | 73 | 270 | 1.0 | 3.0 | 0.00 | 0.02 | 0.01 | 91 | 1016.5 |
| 20260901081517 | 73 | 270 | 2.0 | 6.0 | 0.00 | 0.02 | 0.01 | 91 | 1016.6 |
| 20260901081038 | 73 | 270 | 2.0 | 7.0 | 0.00 | 0.02 | 0.01 | 91 | 1016.5 |
| 20260901080517 | 73 | 270 | 3.0 | 7.0 | 0.00 | 0.02 | 0.01 | 91 | 1016.6 |
| 20260901080017 | 73 | 270 | 1.0 | 4.0 | 0.00 | 0.02 | 0.01 | 91 | 1016.5 |
| 20260901075517 | 73 | 225 | 1.0 | 3.0 | 0.00 | 0.02 | 0.01 | 91 | 1016.4 |
| 20260901075017 | 73 | 225 | 2.0 | 5.0 | 0.00 | 0.02 | 0.01 | 91 | 1016.4 |
| 20260901074517 | 73 | 293 | 1.0 | 4.0 | 0.00 | 0.02 | 0.01 | 91 | 1016.4 |
| 20260901074018 | 73 | 248 | 3.0 | 5.0 | 0.00 | 0.02 | 0.01 | 91 | 1016.5 |
| 20260901073517 | 73 | 225 | 3.0 | 8.0 | 0.00 | 0.02 | 0.01 | 91 | 1016.5 |
| 20260901073018 | 73 | 225 | 2.0 | 6.0 | 0.00 | 0.02 | 0.01 | 91 | 1016.4 |
| 20260901072517 | 73 | 225 | 3.0 | 8.0 | 0.00 | 0.02 | 0.01 | 91 | 1016.5 |
| 20260901072018 | 73 | 225 | 2.0 | 5.0 | 0.00 | 0.02 | 0.01 | 91 | 1016.6 |
| 20260901071517 | 73 | 248 | 3.0 | 6.0 | 0.00 | 0.02 | 0.01 | 91 | 1016.7 |
| 20260901071017 | 73 | 225 | 3.0 | 9.0 | 0.00 | 0.02 | 0.01 | 90 | 1016.7 |
| 20260901070517 | 73 | 225 | 2.0 | 5.0 | 0.00 | 0.02 | 0.01 | 90 | 1016.8 |
| 20260901070017 | 73 | 225 | 1.0 | 4.0 | 0.00 | 0.02 | 0.01 | 90 | 1016.8 |
| 20260901065517 | 73 | 225 | 2.0 | 5.0 | 0.00 | 0.02 | 0.01 | 90 | 1016.7 |
| 20260901065017 | 73 | 225 | 1.0 | 5.0 | 0.00 | 0.02 | 0.01 | 90 | 1016.8 |
| 20260901064518 | 73 | 225 | 1.0 | 4.0 | 0.00 | 0.02 | 0.01 | 90 | 1016.9 |
| 20260901064017 | 73 | 225 | 3.0 | 6.0 | 0.00 | 0.02 | 0.01 | 90 | 1017.0 |
| 20260901063517 | 73 | 225 | 1.0 | 5.0 | 0.00 | 0.02 | 0.01 | 90 | 1017.0 |
| 20260901063018 | 73 | 225 | 1.0 | 5.0 | 0.00 | 0.02 | 0.01 | 90 | 1017.0 |
| 20260901062517 | 73 | 225 | 2.0 | 7.0 | 0.00 | 0.02 | 0.01 | 90 | 1017.0 |
| 20260901062017 | 73 | 225 | 1.0 | 5.0 | 0.00 | 0.02 | 0.01 | 90 | 1017.1 |
| 20260901061516 | 73 | 225 | 2.0 | 4.0 | 0.00 | 0.02 | 0.01 | 90 | 1017.2 |
| 20260901061018 | 73 | 225 | 2.0 | 6.0 | 0.00 | 0.02 | 0.01 | 90 | 1017.2 |
| 20260901060537 | 73 | 225 | 1.0 | 3.0 | 0.00 | 0.02 | 0.01 | 89 | 1017.2 |
| 20260901060017 | 73 | 225 | 2.0 | 5.0 | 0.01 | 0.02 | 0.01 | 89 | 1017.3 |
| 20260901055517 | 73 | 0.0 | 3.0 | 0.01 | 0.02 | 0.01 | 89 | 1017.2 | |
| 20260901055017 | 73 | 225 | 2.0 | 6.0 | 0.01 | 0.02 | 0.01 | 89 | 1017.4 |
| 20260901054517 | 73 | 225 | 3.0 | 6.0 | 0.01 | 0.02 | 0.01 | 89 | 1017.3 |
| 20260901054037 | 73 | 225 | 2.0 | 6.0 | 0.01 | 0.02 | 0.01 | 88 | 1017.4 |
| 20260901053517 | 73 | 225 | 2.0 | 6.0 | 0.01 | 0.02 | 0.01 | 88 | 1017.5 |
| 20260901053017 | 73 | 225 | 2.0 | 4.0 | 0.01 | 0.02 | 0.01 | 88 | 1017.6 |
| 20260901052516 | 73 | 248 | 2.0 | 4.0 | 0.01 | 0.02 | 0.01 | 88 | 1017.7 |
| 20260901052017 | 73 | 225 | 2.0 | 5.0 | 0.01 | 0.02 | 0.01 | 87 | 1017.6 |